Weather reports worldwide

Advertisment
Aberdeen/Dyce, United Kingdom (3091): temperature & dewpoint: 11.09.2019 12:00:00 - 17.09.2019 12:00:00 (BST)Aberdeen/Dyce, United Kingdom (3091): temperature -20cm & temperature -100cm: 11.09.2019 12:00:00 - 17.09.2019 12:00:00 (BST)Aberdeen/Dyce, United Kingdom (3091): wind speed & gusts: 11.09.2019 12:00:00 - 17.09.2019 12:00:00 (BST)Aberdeen/Dyce, United Kingdom (3091): wind direction: 11.09.2019 12:00:00 - 17.09.2019 12:00:00 (BST)Aberdeen/Dyce, United Kingdom (3091): reduced air pressure: 11.09.2019 12:00:00 - 17.09.2019 12:00:00 (BST)Aberdeen/Dyce, United Kingdom (3091): visibility: 11.09.2019 12:00:00 - 17.09.2019 12:00:00 (BST)Aberdeen/Dyce, United Kingdom (3091): sunshine duration: 11.09.2019 12:00:00 - 17.09.2019 12:00:00 (BST)Aberdeen/Dyce, United Kingdom (3091): precipitation: 11.09.2019 12:00:00 - 17.09.2019 12:00:00 (BST)
Date & Time tt [°C] td [°C] tt -20cm [°C] tt -100cm [°C] ff [km/h] ff [kn] fx [km/h] fx [kn] dd ppp [hPa] vv [km] sd [min] rr [mm]
17.09.2019 12:00:00 11,9 3,3 - - 31 17 50 27 NNW 1024,8 35 54 0,0
17.09.2019 11:00:00 11,4 4,2 - - 37 20 57 31 NW 1024,0 17 60 0,0
17.09.2019 10:00:00 10,6 4,0 12,0 13,0 35 19 46 25 NW 1023,3 10 60 0,0
17.09.2019 09:00:00 9,7 4,2 - - 29 16 46 25 WNW 1022,9 10 60 0,0
17.09.2019 08:00:00 8,7 3,8 - - 26 14 - - WNW 1022,2 10 24 0,0
17.09.2019 07:00:00 8,5 3,2 - - 24 13 - - W 1021,5 10 0 0,0
17.09.2019 06:00:00 8,1 2,6 - - 24 13 - - WNW 1021,0 10 0 0,0
17.09.2019 05:00:00 8,5 2,6 - - 26 14 - - WNW 1020,7 22 0 0,0
17.09.2019 04:00:00 7,8 4,2 - - 15 8 - - W 1020,6 24 0 0,0
17.09.2019 03:00:00 8,0 4,0 - - 9 5 - - W 1020,7 25 0 0,0
17.09.2019 02:00:00 8,5 4,2 - - 15 8 - - W 1020,4 24 0 0,0
17.09.2019 01:00:00 8,8 4,2 - - 11 6 - - W 1020,1 10 - 0,0
17.09.2019 00:00:00 8,4 4,3 - - 15 8 - - W 1020,0 26 0 0,0
16.09.2019 23:00:00 9,3 5,3 - - 8 4 - - W 1020,0 10 0 0,2
16.09.2019 22:00:00 8,9 7,1 - - 4 2 - - NE 1019,9 30 0 0,2
16.09.2019 21:00:00 9,7 7,7 - - 18 10 - - NW 1019,7 25 0 0,4
16.09.2019 20:00:00 11,9 6,3 - - 15 8 - - W 1019,2 10 0 0,0
16.09.2019 19:00:00 12,3 7,0 - - 22 12 - - W 1019,0 10 12 0,0
16.09.2019 18:00:00 12,5 7,9 - - 21 11 - - WNW 1019,1 50 24 0,0
16.09.2019 17:00:00 14,5 6,5 - - 24 13 46 25 W 1018,7 10 30 0,0
16.09.2019 16:00:00 15,1 5,6 - - 22 12 46 25 WNW 1018,3 10 54 0,0
16.09.2019 15:00:00 14,7 6,1 - - 26 14 - - W 1018,7 10 42 0,0
16.09.2019 14:00:00 14,7 6,1 - - 24 13 46 25 WNW 1018,9 10 24 0,0
16.09.2019 13:00:00 15,0 5,1 - - 31 17 48 26 W 1018,9 50 36 0,0
16.09.2019 12:00:00 14,0 4,5 - - 16 9 46 25 W 1019,1 50 48 0,0
16.09.2019 11:00:00 13,1 4,0 - - 24 13 - - WNW 1018,9 10 42 0,0
16.09.2019 10:00:00 11,8 5,5 12,0 13,0 13 7 - - SSW 1019,3 10 54 0,0
16.09.2019 09:00:00 10,2 4,6 - - 11 6 - - SSW 1019,3 10 30 0,0
16.09.2019 08:00:00 8,8 4,3 - - 8 4 - - SW 1019,3 10 24 0,0
16.09.2019 07:00:00 6,9 3,3 - - 8 4 - - WSW 1019,2 40 0 0,0
16.09.2019 06:00:00 7,2 3,1 - - 8 4 - - WSW 1019,6 10 0 0,0
16.09.2019 05:00:00 7,1 2,7 - - 9 5 - - WSW 1019,8 10 0 0,0
16.09.2019 04:00:00 7,8 2,8 - - 8 4 - - W 1020,3 10 0 0,0
16.09.2019 03:00:00 7,6 2,9 - - 11 6 - - WSW 1020,5 40 0 0,0
16.09.2019 02:00:00 7,4 2,9 - - 9 5 - - SW 1020,5 35 0 0,0
16.09.2019 01:00:00 9,0 3,1 - - 15 8 - - W 1020,5 10 - 0,0
16.09.2019 00:00:00 8,4 3,6 - - 9 5 - - WSW 1020,8 24 0 0,0
15.09.2019 23:00:00 8,8 3,3 - - 8 4 - - WSW 1020,8 27 0 0,0
15.09.2019 22:00:00 9,6 3,6 - - 11 6 - - W 1020,9 10 0 0,0
15.09.2019 21:00:00 10,6 4,0 - - 9 5 - - WNW 1020,6 10 0 0,0
15.09.2019 20:00:00 11,9 4,5 - - 21 11 - - WNW 1020,2 10 0 0,0
15.09.2019 19:00:00 12,8 4,3 - - 8 4 - - W 1019,8 10 18 0,0
15.09.2019 18:00:00 13,5 3,1 - - 13 7 - - NW 1019,7 28 30 0,0
15.09.2019 17:00:00 14,7 3,7 - - 18 10 - - WNW 1019,3 10 42 0,0
15.09.2019 16:00:00 14,5 3,6 - - 26 14 - - NW 1019,2 10 36 0,0
15.09.2019 15:00:00 15,4 3,3 - - 28 15 48 26 WNW 1018,8 10 60 0,0
15.09.2019 14:00:00 15,1 5,2 - - 24 13 - - W 1019,2 10 48 0,0
15.09.2019 13:00:00 13,0 4,4 - - 24 13 - - W 1019,8 10 0 0,0
15.09.2019 12:00:00 12,1 3,7 - - 18 10 - - W 1019,2 10 0 0,0
15.09.2019 11:00:00 11,9 3,5 - - 24 13 - - WNW 1018,2 14 0 0,0
15.09.2019 10:00:00 11,7 3,5 12,4 13,0 18 10 50 27 W 1017,7 15 0 0,0
15.09.2019 09:00:00 11,5 2,9 - - 37 20 54 29 W 1016,3 17 0 0,0
15.09.2019 08:00:00 10,9 3,4 - - 24 13 46 25 W 1016,3 10 0 0,0
15.09.2019 07:00:00 10,6 3,1 - - 22 12 - - W 1016,0 10 0 0,0
15.09.2019 06:00:00 11,0 3,7 - - 24 13 - - W 1015,5 10 0 0,0
15.09.2019 05:00:00 11,2 4,4 - - 24 13 46 25 W 1015,3 10 0 0,0
15.09.2019 04:00:00 11,1 3,8 - - 22 12 - - W 1015,5 10 0 0,0
15.09.2019 03:00:00 12,2 4,9 - - 31 17 46 25 W 1014,6 20 0 0,0
15.09.2019 02:00:00 12,5 5,3 - - 26 14 50 27 WNW 1014,2 10 0 0,0
15.09.2019 01:00:00 13,0 5,5 - - 18 10 - - W 1014,3 10 - 0,0
15.09.2019 00:00:00 13,4 8,1 - - 16 9 - - WNW 1014,3 10 0 0,0
14.09.2019 23:00:00 13,5 11,6 - - 9 5 - - NW 1014,1 50 0 0,2
14.09.2019 22:00:00 14,1 12,7 - - 18 10 - - WSW 1013,8 6 0 0,6
14.09.2019 21:00:00 14,0 12,2 - - 22 12 48 26 SSW 1013,3 10 0 0,0
14.09.2019 20:00:00 14,2 11,3 - - 35 19 52 28 SSW 1013,2 19 0 0,0
14.09.2019 19:00:00 15,0 10,8 - - 34 18 55 30 SSW 1013,5 10 0 0,0
14.09.2019 18:00:00 15,2 10,0 - - 34 18 61 33 SW 1014,0 40 0 0,0
14.09.2019 17:00:00 15,3 9,6 - - 41 22 65 35 SW 1014,7 35 24 0,0
14.09.2019 16:00:00 15,1 9,4 - - 34 18 55 30 SSW 1016,2 10 0 0,0
14.09.2019 15:00:00 14,7 9,4 - - 31 17 65 35 SW 1017,6 45 0 0,0
14.09.2019 14:00:00 14,6 9,2 - - 42 23 59 32 SW 1018,2 10 0 0,0
14.09.2019 13:00:00 14,5 9,2 - - 34 18 57 31 SW 1018,7 50 0 0,0
14.09.2019 12:00:00 13,9 8,8 - - 26 14 46 25 SW 1020,5 45 0 0,0
14.09.2019 11:00:00 12,9 8,9 - - 16 9 - - S 1022,0 10 0 0,0
14.09.2019 10:00:00 12,1 8,8 12,5 13,2 28 15 48 26 SSW 1023,4 10 0 0,0
14.09.2019 09:00:00 11,3 9,2 - - 35 19 46 25 S 1023,8 10 0 0,2
14.09.2019 08:00:00 11,0 8,9 - - 22 12 - - S 1025,4 10 0 0,2
14.09.2019 07:00:00 11,2 6,8 - - 13 7 - - SSE 1026,7 10 0 0,0
14.09.2019 06:00:00 11,4 6,1 - - 16 9 - - SSW 1027,5 10 0 0,0
14.09.2019 05:00:00 10,7 6,3 - - 9 5 - - SSE 1028,2 10 0 0,0
14.09.2019 04:00:00 10,7 6,1 - - 11 6 - - S 1029,2 10 0 0,0
14.09.2019 03:00:00 11,0 6,4 - - 8 4 - - SSE 1030,5 10 0 0,0
14.09.2019 02:00:00 11,5 6,3 - - 8 4 - - S 1031,4 10 0 0,0
14.09.2019 01:00:00 12,1 6,1 - - 11 6 - - SW 1031,6 10 - 0,0
14.09.2019 00:00:00 11,3 5,9 - - 11 6 - - S 1032,1 10 0 0,0
13.09.2019 23:00:00 12,0 5,9 - - 8 4 - - S 1032,0 10 0 0,0
13.09.2019 22:00:00 12,8 5,6 - - 18 10 - - WSW 1032,2 10 0 0,0
13.09.2019 21:00:00 12,5 4,8 - - 8 4 - - SW 1032,3 10 0 0,0
13.09.2019 20:00:00 13,5 4,7 - - 13 7 - - SW 1032,4 50 0 0,0
13.09.2019 19:00:00 14,7 4,1 - - 13 7 - - WSW 1031,9 10 24 0,0
13.09.2019 18:00:00 16,2 3,7 - - 16 9 - - W 1031,9 50 60 0,0
13.09.2019 17:00:00 17,0 3,7 - - 21 11 - - W 1031,0 10 42 0,0
13.09.2019 16:00:00 16,9 4,4 - - 18 10 - - W 1031,1 10 36 0,0
13.09.2019 15:00:00 16,6 3,7 - - 24 13 - - WNW 1031,5 50 6 0,0
13.09.2019 14:00:00 16,8 4,3 - - 21 11 - - W 1031,2 10 36 0,0
13.09.2019 13:00:00 15,7 4,4 - - 24 13 - - WNW 1031,1 10 36 0,0
13.09.2019 12:00:00 15,6 3,9 - - 21 11 - - WNW 1031,0 50 60 0,0
13.09.2019 11:00:00 14,0 5,8 - - 11 6 - - SW 1030,8 10 18 0,0
13.09.2019 10:00:00 11,9 5,9 12,7 13,2 18 10 - - S 1030,3 10 24 0,0
13.09.2019 09:00:00 12,5 4,8 - - 16 9 - - W 1029,5 10 60 0,0
13.09.2019 08:00:00 11,0 5,0 - - 15 8 - - W 1029,3 10 42 0,0
13.09.2019 07:00:00 9,4 4,9 - - 11 6 - - W 1028,9 10 0 0,0
13.09.2019 06:00:00 9,7 4,9 - - 11 6 - - W 1028,1 10 0 0,0
13.09.2019 05:00:00 9,0 4,7 - - 13 7 - - SW 1027,4 10 0 0,0
13.09.2019 04:00:00 9,4 4,4 - - 13 7 - - WSW 1026,8 10 0 0,0
13.09.2019 03:00:00 9,9 4,7 - - 15 8 - - WSW 1026,2 10 0 0,0
13.09.2019 02:00:00 9,3 4,6 - - 13 7 - - WSW 1025,8 10 0 0,0
13.09.2019 01:00:00 9,8 4,8 - - 11 6 - - WSW 1025,2 10 - 0,0
13.09.2019 00:00:00 10,1 5,1 - - 13 7 - - WSW 1024,6 10 0 0,0
12.09.2019 23:00:00 11,4 5,3 - - 18 10 - - W 1024,2 10 0 0,0
12.09.2019 22:00:00 11,2 6,3 - - 13 7 - - W 1023,2 10 0 0,0
12.09.2019 21:00:00 12,2 5,4 - - 15 8 - - W 1022,5 10 0 0,0
12.09.2019 20:00:00 13,1 6,1 - - 21 11 - - WNW 1021,5 10 6 0,0
12.09.2019 19:00:00 14,6 6,5 - - 22 12 - - NW 1020,6 45 54 0,0
12.09.2019 18:00:00 15,9 6,8 - - 24 13 - - NW 1019,5 45 54 0,0
12.09.2019 17:00:00 16,2 8,8 - - 16 9 - - NNW 1018,6 10 18 0,0
12.09.2019 16:00:00 15,8 10,2 - - 11 6 - - WNW 1018,0 10 6 0,0
12.09.2019 15:00:00 16,1 10,9 - - 9 5 - - SW 1017,2 10 6 0,0
12.09.2019 14:00:00 14,9 11,2 - - 16 9 - - SSW 1016,9 10 0 0,0
12.09.2019 13:00:00 14,4 10,4 - - 15 8 - - SSW 1016,6 10 0 0,0
12.09.2019 12:00:00 14,6 10,0 - - 16 9 - - S 1016,5 45 0 0,0
12.09.2019 11:00:00 13,5 9,4 - - 18 10 - - SSW 1016,3 10 0 0,0
12.09.2019 10:00:00 12,9 9,0 12,7 13,2 18 10 - - SW 1016,3 10 0 0,0
12.09.2019 09:00:00 12,5 9,0 - - 16 9 - - SSW 1016,0 10 0 0,0
12.09.2019 08:00:00 11,9 8,7 - - 13 7 - - SW 1015,7 10 0 0,0
12.09.2019 07:00:00 11,5 9,0 - - 13 7 - - SW 1015,4 10 0 0,0
12.09.2019 06:00:00 11,3 8,5 - - 16 9 - - SSW 1015,1 10 0 0,0
12.09.2019 05:00:00 11,5 8,5 - - 15 8 - - SW 1015,2 10 0 0,0
12.09.2019 04:00:00 11,1 8,0 - - 11 6 - - SSW 1014,6 10 0 0,0
12.09.2019 03:00:00 12,0 8,1 - - 8 4 - - W 1014,7 10 0 0,0
12.09.2019 02:00:00 10,7 7,6 - - 13 7 - - SW 1014,3 50 0 0,0
12.09.2019 01:00:00 12,0 7,7 - - 15 8 - - WSW 1013,9 10 - 0,0
12.09.2019 00:00:00 12,2 7,3 - - 16 9 - - WSW 1013,6 50 0 0,0
11.09.2019 23:00:00 11,5 7,4 - - 5 3 - - - 1013,4 10 0 0,0
11.09.2019 22:00:00 12,9 8,0 - - 13 7 - - SW 1013,0 10 0 0,0
11.09.2019 21:00:00 14,2 7,5 - - 13 7 - - SSW 1012,6 10 0 0,0
11.09.2019 20:00:00 15,2 7,6 - - 13 7 - - WSW 1011,6 10 0 0,0
11.09.2019 19:00:00 16,0 7,6 - - 11 6 48 26 WSW 1010,8 10 0 0,0
11.09.2019 18:00:00 16,5 7,3 - - 22 12 48 26 W 1009,5 10 36 0,0
11.09.2019 17:00:00 17,5 8,0 - - 13 7 52 28 W 1009,2 10 54 0,0
11.09.2019 16:00:00 17,9 7,5 - - 28 15 50 27 W 1007,8 10 54 0,0
11.09.2019 15:00:00 18,5 7,9 - - 24 13 54 29 W 1007,4 10 60 0,0
11.09.2019 14:00:00 18,2 8,9 - - 18 10 - - W 1006,4 10 24 0,0
11.09.2019 13:00:00 16,4 8,3 - - 16 9 - - WSW 1005,9 10 18 0,0
11.09.2019 12:00:00 17,0 8,7 - - 24 13 - - WSW 1005,2 10 36 0,0

tt = temperature
td = dewpoint
tt -20cm = temperature -20cm
tt -100cm = temperature -100cm
ff = wind speed
fx = gusts
dd = wind direction
ppp = reduced air pressure
vv = visibility
sd = sunshine duration
rr = precipitation

Next stations